User: anonymous   Login
Location: Fountain Hills
(33.6120°N, 111.7170°W)
Time: 13:14:59
(UTC-07:00)
Language:

Hamsat - Orbit

View from above orbital plane
View from above orbital plane
View from above satellite
View from above satellite

Ground track
Ground track

The orbit data is extracted from the following two-line orbital elements,

1 28650U 05017B   14330.52565107  .00004326  00000-0  49527-3 0  9159
2 28650 097.5655 327.4763 0024161 346.1865 013.8688 14.86244124517338
Epoch (UTC): 26 November 2014 12:36:56
Eccentricity: 0.0024161
inclination: 97.5655°
perigee height: 593 km
apogee height: 626 km
right ascension of ascending node: 327.4763°
argument of perigee: 346.1865°
revolutions per day: 14.86244124
mean anomaly at epoch: 13.8688°
orbit number at epoch: 51733

The dashed part of the orbit path shows where the satellite is in the earth's shadow,  

DLR